Regional Weather Roundup
Issued by NWS

Home | Current Version | Previous Version | Graphics & Text | Print | Product List | Glossary On
Versions: 1 2 3 4 5 6 7 8 9 10 11 12 13 14 15 16 17 18 19 20 21 22 23 24 25 26 27 28 29 30 31 32 33 34 35 36 37 38 39 40 41 42 43 44 45 46 47 48 49 50
000
ASUS44 KMEG 201510
RWRTN
TENNESSEE HOURLY STATE WEATHER ROUNDUP
NATIONAL WEATHER SERVICE MEMPHIS TN
900 AM CST MON NOV 20 2017

TNZ002-004-019-021-049-052-054-088>092-201600-
WEST TENNESSEE

CITY           SKY/WX    TMP DP  RH WIND       PRES   REMARKS
MEMPHIS INTL   CLOUDY    39  30  70 S5        30.27S
NWS MEMPHIS      N/A     36 N/A N/A MISG        N/A
JACKSON        CLOUDY    38  32  79 CALM      30.28S
DYERSBURG      SUNNY     39  28  64 S8        30.27F WCI  33
COVINGTON      SUNNY     37  30  75 CALM      30.28S
UNION CITY     SUNNY     37  30  75 S7        30.26S WCI  32
BOLIVAR        SUNNY     36  30  80 SE5       30.27S WCI  32
PARIS          SUNNY     39  28  65 S6        30.25S WCI  35
HUNTINGDON     SUNNY     37  30  75 SE5       30.26S WCI  34
LEXINGTON      SUNNY     34  30  86 SE3       30.28S
SELMER         SUNNY     39  28  65 VRB6      30.27S WCI  35
SAVANNAH       SUNNY     36  28  75 CALM      30.27F
$$

TNZ008-025-027-028-033-062-065-066-201600-
NORTH MIDDLE TENNESSEE

CITY           SKY/WX    TMP DP  RH WIND       PRES   REMARKS
NASHVILLE      MOSUNNY   38  28  67 S5        30.29F WCI  34
PORTLAND       SUNNY     37  28  70 S8        30.27F WCI  31
CLARKSVILLE    SUNNY     37  26  64 S7        30.27S WCI  32
SMYRNA         SUNNY     37  34  89 CALM      30.30F
COOKEVILLE     SUNNY     36  30  80 CALM      30.27S
GALLATIN       SUNNY     32  30  93 CALM      30.32F
CROSSVILLE     SUNNY     36  23  59 S3        30.25S
$$

TNZ061-075-076-078-094-096-097-201600-
SOUTH MIDDLE TENNESSEE

CITY           SKY/WX    TMP DP  RH WIND       PRES   REMARKS
FAYETTEVILLE   SUNNY     37  28  70 NE8       30.25S WCI  31
TULLAHOMA      SUNNY     37  25  60 NE5       30.26R WCI  34
WINCHESTER     SUNNY     37  27  65 CALM      30.26S
MCMINNVILLE    SUNNY     36  28  75 CALM      30.26F
COLUMBIA       SUNNY     34  30  86 CALM      30.26F
SHELBYVILLE    SUNNY     37  28  70 SE6       30.28R WCI  33
$$

TNZ017-018-042-046-047-201600-
NORTHEAST TENNESSEE

CITY           SKY/WX    TMP DP  RH WIND       PRES   REMARKS
TRI CITIES     SUNNY     35  30  82 SW3       30.29S
ELIZABETHTON   SUNNY     37  28  70 E6        30.28S WCI  33
$$

TNZ012-013-036-069-073-074-201600-
CENTRAL EAST TENNESSEE

CITY           SKY/WX    TMP DP  RH WIND       PRES   REMARKS
KNOXVILLE      SUNNY     38  35  89 CALM      30.29S
OAK RIDGE      SUNNY     33  32  96 CALM      30.31S
DOWNTOWN KNOXV SUNNY     36  36 100 CALM      30.31S
GATLINBURG     SUNNY     34  32  93 CALM      30.29F
MORRISTOWN     SUNNY     37  28  70 VRB5      30.28R WCI  34
JACKSBORO      SUNNY     36  30  80 NE5       30.33S WCI  32
$$

TNZ083-085-099-201600-
SOUTHEAST TENNESSEE

CITY           SKY/WX    TMP DP  RH WIND       PRES   REMARKS
CHATTANOOGA    MOSUNNY   41  28  60 NE8       30.29S
$$

SKY/WX REPORTED AS FAIR MEANS FEW OR NO CLOUDS BELOW
12 THOUSAND FEET.




USA.gov is the U.S. government's official web portal to all federal, state and local government web resources and services.